[[{"header":{"parameterUnit":"m.s-1","parameterCategory":1,"la1":30.2991,"la2":30.254,"lo1":-89.0895,"lo2":-89.0444,"dy":0.0017,"dx":0.0017,"nx":28,"ny":28,"refTime":"2023-06-26T21:00:00:Z","depth":0,"parameterNumber":2,"parameterNumberName":"U-component_of_WINDS"},"data":[0,0,0,0,0,0,0,0,0,0,0,0,0,0,0,0,0,0,0,0,0,0,0,0,0,0,0,0,0,0,0,0,0,0,0,0,0,0,0,0,0,0,0,0,0,0,0,0,0,0,0,0,0,0,0,0,0,0,4.4284,4.4287,0,4.4555,4.4558,4.4561,4.4633,4.4631,4.463,4.4628,4.4892,4.4901,4.4909,0,0,0,0,0,0,0,0,0,0,0,0,0,4.3823,4.3831,4.4284,4.4287,4.4291,4.4555,4.4558,4.4562,4.4633,4.4631,4.4629,4.4627,4.489,4.49,4.491,0,0,0,0,0,0,0,0,0,0,0,0,0,4.4051,4.3834,4.4283,4.4358,4.4368,4.4554,4.4558,4.4563,4.4633,4.4631,4.4629,4.4626,4.4886,4.4899,4.4911,4.5038,0,0,4.495,4.4956,0,0,0,0,0,0,0,0,4.4038,4.4068,4.4344,4.4354,4.4365,4.4558,4.4493,4.4722,4.4634,4.4532,4.4628,4.4625,4.4782,4.4803,4.4859,4.505,4.5062,4.4951,4.4959,4.4965,4.4968,0,0,0,0,0,0,0,4.4022,4.4057,4.4391,4.4348,4.436,4.4377,4.4407,4.4537,4.4667,4.4541,4.4547,4.4579,4.4787,4.4846,4.4866,4.5066,4.4951,4.4962,4.497,4.4975,4.5383,4.5386,0,0,0,0,0,0,4.3995,4.4043,4.4382,4.4399,4.4193,4.4387,4.4421,4.4498,4.4666,4.4689,4.458,4.4581,4.4826,4.4851,4.4875,4.5039,4.4965,4.4977,4.4984,4.538,4.5384,4.5387,0,0,0,0,0,0,4.3985,4.4024,4.4371,4.4223,4.4269,4.4398,4.4484,4.4505,4.4564,4.4696,4.4718,4.4617,4.4825,4.4857,4.5,4.5049,4.4982,4.4994,4.5376,4.5381,4.5386,4.5365,0,0,0,0,0,0,4.3971,4.402,4.407,4.4224,4.4276,4.4492,4.4487,4.4512,4.4587,4.4591,4.4736,4.4758,4.4826,4.4981,4.5013,4.5066,4.5004,4.5372,4.5379,4.5384,4.5361,4.5368,4.5374,0,0,0,0,0,4.3954,4.4048,4.4072,4.4112,4.4342,4.4495,4.4525,4.4604,4.4591,4.4642,4.4729,4.4753,4.504,4.4994,4.5031,4.5088,4.5369,4.5377,4.5384,4.5359,4.5367,4.5374,0,0,0,0,0,0,4.3889,4.4069,4.4097,4.4245,4.4355,4.4507,4.4572,4.4609,4.4721,4.4719,4.481,4.4842,4.4979,4.5049,4.4995,4.5225,4.5205,4.522,4.5173,4.5182,4.5188,4.5167,4.5015,0,0,0,0,0,4.3894,4.4006,4.4156,4.4271,4.4327,4.4441,4.451,4.4564,4.4679,4.4724,4.482,4.4929,4.5045,4.5118,4.523,4.5374,4.5408,4.5433,4.5439,4.5443,4.5453,4.554,4.5554,4.5411,4.5411,4.5411,0,0,4.39,4.4013,4.4076,4.4262,4.4353,4.4467,4.4478,4.4595,4.4681,4.474,4.4883,4.4959,4.5086,4.5232,4.5301,4.5294,4.5503,4.5452,4.5455,4.5463,4.5549,4.5563,4.5574,4.5416,4.5415,4.5414,0,0,4.397,4.4067,4.4177,4.4272,4.4413,4.4491,4.4518,4.4668,4.4722,4.4868,4.4918,4.502,4.5215,4.5307,4.5378,4.5497,4.5525,4.5531,4.5561,4.5645,4.5656,4.5667,4.5711,4.5726,4.5542,4.5542,4.5542,0,4.3959,4.4135,4.4227,4.4346,4.4427,4.4496,4.4609,4.4695,4.4863,4.4918,4.491,4.5164,4.5254,4.5424,4.5455,4.551,4.5544,4.5512,4.5648,4.566,4.5671,4.5714,4.573,4.5542,4.5542,4.5542,4.5542,0,4.4116,4.4238,4.4309,4.448,4.457,4.4684,4.4794,4.4874,4.4923,4.5001,4.5152,4.5266,4.5406,4.5451,4.5495,4.5631,4.5623,4.5631,4.5612,4.5683,4.5725,4.5742,4.5542,4.5542,4.5542,4.5542,0,0,4.4142,4.4372,4.4397,4.4478,4.4646,4.474,4.4861,4.5005,4.5073,4.519,4.5293,4.5464,4.5476,4.5558,4.5615,4.5689,4.578,4.5689,4.5693,4.5702,4.5939,4.5931,4.5948,4.5803,4.5806,4.5809,4.5929,0,4.4234,4.4455,4.4547,4.4724,4.4841,4.4913,4.5019,4.5133,4.5212,4.5321,4.5407,4.5528,4.5533,4.5584,4.5661,4.5752,4.5828,4.5745,4.5898,4.5902,4.5861,4.597,4.596,4.6066,4.5946,4.5949,4.5951,0,4.4367,4.4495,4.4686,4.4848,4.49,4.4993,4.5137,4.5241,4.5373,4.5427,4.5525,4.5581,4.5711,4.5689,4.587,4.5811,4.5881,4.5936,4.5943,4.5957,4.5928,4.5986,4.6102,4.6118,4.5977,4.5975,4.5973,0,4.437,4.4589,4.4734,4.4801,4.4992,4.5058,4.514,4.5271,4.5355,4.548,4.5536,4.5673,4.5746,4.5851,4.5944,4.5919,4.6118,4.6102,4.6164,4.6162,4.6198,4.6194,4.6325,4.6246,4.6246,4.6245,4.6245,0,4.4461,4.4575,4.4739,4.4826,4.4959,4.5066,4.5192,4.5279,4.5398,4.5505,4.5575,4.5673,4.5791,4.5905,4.5978,4.6119,4.6151,4.6197,4.6214,4.619,4.6184,4.6233,4.6227,4.625,4.6249,4.6248,4.6247,0,4.4482,4.4597,4.476,4.4933,4.498,4.5069,4.5216,4.5306,4.5393,4.5528,4.5565,4.5701,4.5839,4.5945,4.6121,4.6172,4.6321,4.634,4.6277,4.6286,4.6343,4.6336,4.6508,4.6537,4.6439,4.644,4.6441,0,4.4531,4.4623,4.4809,4.4889,4.4973,4.5099,4.5188,4.5299,4.5388,4.5553,4.5623,4.5769,4.589,4.6108,4.6221,4.6359,4.6381,4.6433,4.6401,4.6376,4.6382,4.6375,4.6385,4.6434,4.6435,4.6435,4.6436,0,4.4607,4.4663,4.479,4.494,4.5046,4.5168,4.529,4.5351,4.5485,4.5582,4.5728,4.5824,4.6011,4.6154,4.6306,4.639,4.6435,4.6447,4.6468,4.6442,4.6402,4.6425,4.6287,4.644,4.644,4.6439,4.6439,4.6439,4.4644,4.4732,4.4879,4.5021,4.5128,4.5244,4.5339,4.5443,4.5568,4.5733,4.5791,4.5942,4.6081,4.6291,4.6377,4.6497,4.6496,4.6527,4.6535,4.654,4.6539,4.6387,4.6524,4.6524,4.6524,4.6524,4.6524,0,4.4724,4.4826,4.4956,4.5131,4.5244,4.5286,4.5427,4.5517,4.5651,4.5779,4.5901,4.6072,4.6215,4.6344,4.6492,4.6564,4.6589,4.6599,4.6593,4.6612,4.653,4.6496,4.6577,4.6577,4.6577,4.6577,4.6577,4.6577,4.4779,4.493,4.5005,4.5211,4.5312,4.5465,4.5543,4.5651,4.5755,4.5945,4.6066,4.6153,4.6282,4.6442,4.6576,4.661,4.6661,4.6666,4.6705,4.6624,4.6617,4.661,4.658,4.6676,4.6676,4.6778,4.6778,4.6779]},{"header":{"parameterUnit":"m.s-1","parameterCategory":1,"la1":30.2991,"la2":30.254,"lo1":-89.0895,"lo2":-89.0444,"dy":0.0017,"dx":0.0017,"nx":28,"ny":28,"refTime":"2023-06-26T21:00:00:Z","depth":0,"parameterNumber":3,"parameterNumberName":"V-component_of_WINDS"},"data":[0,0,0,0,0,0,0,0,0,0,0,0,0,0,0,0,0,0,0,0,0,0,0,0,0,0,0,0,0,0,0,0,0,0,0,0,0,0,0,0,0,0,0,0,0,0,0,0,0,0,0,0,0,0,0,0,0,0,-1.7757,-1.7759,0,-1.791,-1.7912,-1.7914,-1.7944,-1.7943,-1.7941,-1.794,-1.8109,-1.8115,-1.812,0,0,0,0,0,0,0,0,0,0,0,0,0,-1.75,-1.7505,-1.7757,-1.7759,-1.7761,-1.791,-1.7912,-1.7914,-1.7944,-1.7943,-1.7941,-1.794,-1.8107,-1.8114,-1.8121,0,0,0,0,0,0,0,0,0,0,0,0,0,-1.7629,-1.7506,-1.7757,-1.7793,-1.7798,-1.791,-1.7912,-1.7915,-1.7944,-1.7943,-1.7941,-1.7939,-1.8105,-1.8113,-1.8122,-1.8211,0,0,-1.8147,-1.8151,0,0,0,0,0,0,0,0,-1.7621,-1.7638,-1.7786,-1.7791,-1.7797,-1.7906,-1.7883,-1.8014,-1.7945,-1.7889,-1.794,-1.7938,-1.8044,-1.8057,-1.809,-1.8219,-1.8226,-1.8148,-1.8153,-1.8157,-1.8159,0,0,0,0,0,0,0,-1.7612,-1.7632,-1.7818,-1.7788,-1.7795,-1.7805,-1.7822,-1.7908,-1.7976,-1.7894,-1.7896,-1.7914,-1.8046,-1.8082,-1.8094,-1.8228,-1.8148,-1.8155,-1.8161,-1.8164,-1.8438,-1.844,0,0,0,0,0,0,-1.7595,-1.7624,-1.7813,-1.7823,-1.7702,-1.7811,-1.783,-1.7873,-1.7974,-1.7988,-1.7915,-1.7914,-1.8068,-1.8085,-1.8101,-1.8213,-1.8157,-1.8165,-1.817,-1.8436,-1.8439,-1.8441,0,0,0,0,0,0,-1.759,-1.7612,-1.7807,-1.7724,-1.7749,-1.7818,-1.7866,-1.7877,-1.7913,-1.799,-1.8003,-1.7939,-1.8068,-1.8089,-1.8182,-1.8219,-1.8169,-1.8176,-1.8433,-1.8437,-1.844,-1.8438,0,0,0,0,0,0,-1.7582,-1.761,-1.7642,-1.7724,-1.7754,-1.7884,-1.7868,-1.7881,-1.7926,-1.7926,-1.8016,-1.8029,-1.8068,-1.817,-1.8191,-1.823,-1.8183,-1.8431,-1.8435,-1.8439,-1.8435,-1.8441,-1.8446,0,0,0,0,0,-1.7573,-1.7639,-1.7644,-1.7667,-1.7796,-1.7886,-1.7903,-1.7943,-1.7928,-1.7964,-1.8013,-1.8026,-1.821,-1.8179,-1.8203,-1.8246,-1.8429,-1.8434,-1.8439,-1.8433,-1.844,-1.8446,0,0,0,0,0,0,-1.7565,-1.765,-1.7657,-1.775,-1.781,-1.789,-1.7936,-1.7949,-1.8017,-1.8016,-1.8065,-1.8085,-1.8177,-1.822,-1.8183,-1.8337,-1.8319,-1.8329,-1.8307,-1.8314,-1.8319,-1.8309,-1.819,0,0,0,0,0,-1.7572,-1.7635,-1.7707,-1.7783,-1.7812,-1.7868,-1.7909,-1.7934,-1.8,-1.8026,-1.8083,-1.8149,-1.8222,-1.8269,-1.8341,-1.8439,-1.8461,-1.848,-1.8486,-1.8489,-1.85,-1.8557,-1.8567,-1.8457,-1.8457,-1.8457,0,0,-1.7592,-1.7646,-1.7684,-1.7783,-1.7832,-1.7899,-1.789,-1.7962,-1.8013,-1.8039,-1.813,-1.8173,-1.8251,-1.8347,-1.8393,-1.8386,-1.8533,-1.8496,-1.8498,-1.8507,-1.8563,-1.8573,-1.8582,-1.8461,-1.846,-1.846,0,0,-1.7662,-1.7708,-1.7776,-1.7824,-1.7896,-1.7932,-1.7948,-1.8026,-1.8055,-1.8146,-1.8166,-1.8229,-1.8353,-1.8407,-1.8451,-1.8536,-1.8553,-1.8558,-1.8588,-1.8643,-1.8652,-1.866,-1.8694,-1.8705,-1.8567,-1.8567,-1.8567,0,-1.7679,-1.7777,-1.7811,-1.788,-1.7924,-1.7944,-1.8016,-1.8061,-1.8155,-1.8187,-1.8176,-1.8331,-1.8384,-1.8494,-1.8514,-1.8548,-1.8571,-1.8551,-1.8647,-1.8655,-1.8663,-1.8696,-1.8708,-1.8567,-1.8567,-1.8567,-1.8567,0,-1.7795,-1.7863,-1.791,-1.7995,-1.8043,-1.8114,-1.816,-1.8206,-1.8225,-1.8263,-1.8356,-1.8419,-1.8504,-1.8531,-1.8552,-1.8644,-1.8638,-1.8636,-1.862,-1.8674,-1.8706,-1.8718,-1.8568,-1.8568,-1.8568,-1.8567,0,0,-1.7872,-1.7969,-1.7987,-1.8025,-1.8104,-1.8159,-1.823,-1.8308,-1.8347,-1.841,-1.8473,-1.8575,-1.8573,-1.8622,-1.8649,-1.8696,-1.8763,-1.869,-1.8692,-1.8704,-1.8872,-1.8876,-1.889,-1.8771,-1.8774,-1.8776,-1.8867,0,-1.7955,-1.8079,-1.8109,-1.8217,-1.8281,-1.8298,-1.836,-1.8417,-1.8453,-1.8516,-1.8557,-1.8629,-1.8619,-1.865,-1.8696,-1.8745,-1.8799,-1.8738,-1.8836,-1.8839,-1.8821,-1.8906,-1.8912,-1.8995,-1.8879,-1.8881,-1.8883,0,-1.807,-1.813,-1.8243,-1.8311,-1.834,-1.8395,-1.8468,-1.8525,-1.8591,-1.8614,-1.8666,-1.8687,-1.8765,-1.8739,-1.8848,-1.8807,-1.8847,-1.8877,-1.8881,-1.8897,-1.8868,-1.8929,-1.9023,-1.9037,-1.8902,-1.8901,-1.8899,0,-1.8119,-1.8228,-1.8309,-1.8341,-1.8423,-1.8461,-1.8498,-1.856,-1.8604,-1.8669,-1.8699,-1.8772,-1.8814,-1.8872,-1.8914,-1.889,-1.9021,-1.8998,-1.9046,-1.9045,-1.9078,-1.9077,-1.9185,-1.9095,-1.9095,-1.9095,-1.9095,0,-1.8212,-1.8282,-1.8332,-1.8383,-1.8462,-1.8495,-1.8573,-1.861,-1.8664,-1.8725,-1.8744,-1.8802,-1.885,-1.8915,-1.8947,-1.9034,-1.9052,-1.9076,-1.9085,-1.9078,-1.9075,-1.911,-1.9107,-1.9098,-1.9098,-1.9097,-1.9096,0,-1.8283,-1.8319,-1.841,-1.8476,-1.8495,-1.855,-1.861,-1.8661,-1.8694,-1.8771,-1.8791,-1.8847,-1.8923,-1.8968,-1.9066,-1.9088,-1.9186,-1.919,-1.9163,-1.9168,-1.9215,-1.9212,-1.9354,-1.9376,-1.9267,-1.9268,-1.9268,0,-1.8343,-1.8396,-1.8467,-1.8506,-1.8542,-1.8606,-1.865,-1.8684,-1.8729,-1.8804,-1.8848,-1.8924,-1.8988,-1.9109,-1.9161,-1.9236,-1.9245,-1.9289,-1.9257,-1.9248,-1.9251,-1.925,-1.9257,-1.9297,-1.9298,-1.9299,-1.9299,0,-1.8447,-1.846,-1.8521,-1.8587,-1.8637,-1.8692,-1.8747,-1.8779,-1.8822,-1.8873,-1.8948,-1.8997,-1.9094,-1.9171,-1.9249,-1.929,-1.9305,-1.9307,-1.9324,-1.932,-1.9304,-1.9317,-1.9184,-1.9306,-1.9306,-1.9305,-1.9305,-1.9304,-1.8518,-1.8566,-1.8622,-1.8689,-1.8731,-1.8781,-1.8832,-1.887,-1.8932,-1.9011,-1.9027,-1.9108,-1.917,-1.9276,-1.9318,-1.9384,-1.9377,-1.9399,-1.9406,-1.9413,-1.9416,-1.9287,-1.9398,-1.9398,-1.9398,-1.9398,-1.9397,0,-1.8626,-1.8662,-1.8721,-1.8795,-1.8847,-1.8847,-1.8907,-1.8952,-1.9021,-1.9076,-1.9136,-1.9223,-1.9297,-1.9351,-1.9427,-1.9469,-1.9478,-1.9489,-1.949,-1.9499,-1.9416,-1.9396,-1.9481,-1.9481,-1.9481,-1.9481,-1.9481,-1.9481,-1.869,-1.8771,-1.8791,-1.8894,-1.893,-1.9006,-1.904,-1.9087,-1.913,-1.9225,-1.9285,-1.9317,-1.9372,-1.9451,-1.952,-1.9534,-1.9564,-1.9575,-1.9591,-1.9514,-1.9505,-1.9497,-1.9479,-1.9579,-1.958,-1.967,-1.967,-1.9671]}]]